Location: Fisher's Paradise
(46.5411°N, 80.0984°W)
Time: 05:48:07
(UTC-05:00)

OTV 5 (USA 277) - Pass Details

Date: 30 October 2019
Orbit: 310 x 324 km, 54.5° (Epoch: 17 October)

Event Time Altitude Azimuth Distance (km) Brightness Sun altitude
Rises 19:35:18 0° 230° (SW) 2,051 ? -15.4°
Reaches altitude 10° 19:37:15 10° 228° (SW) 1,226 ? -15.7°
Maximum altitude 19:39:57 70° 144° (SE) 345 ? -16.2°
Enters shadow 19:40:14 62° 97° (E) 366 ? -16.2°
